Location: Newark
(11.2914°S, 14.4718°E)
Time: 18:59:24
(UTC+00:00)

Altair - Visible Passes

Search period start: 17 October 2019 00:00
Search period end: 27 October 2019 00:00
Orbit: 1501 x 1683 km, 47.2° (Epoch: 16 October)

Date Brightness Start Highest point End Pass type
(mag) Time Alt. Az. Time Alt. Az. Time Alt. Az.
17 Oct 8.9 18:13:40 10° NNE 18:17:06 15° NE 18:17:06 15° NE visible
17 Oct 9.4 20:13:51 10° NW 20:15:13 15° NW 20:15:13 15° NW visible
18 Oct 8.9 17:49:28 10° NNE 17:54:11 14° NE 17:54:35 14° NE visible
18 Oct 8.7 19:48:42 10° NW 19:52:43 28° NNW 19:52:43 28° NNW visible
19 Oct 9.0 17:25:41 10° NNE 17:28:58 12° NE 17:32:13 10° ENE visible
19 Oct 7.9 19:23:34 10° NNW 19:30:32 49° NNW 19:30:32 49° NNW visible
19 Oct10.021:50:10SSE21:50:10SSE21:28:42WNWvisible
20 Oct 9.7 04:01:25 10° S 04:06:54 17° SE 04:12:20 10° ESE visible
20 Oct 7.5 18:58:28 10° NNW 19:08:26 63° NE 19:08:45 63° ENE visible
20 Oct 9.5 21:04:49 10° WNW 21:06:57 17° W 21:06:57 17° W visible
21 Oct 9.7 03:36:45 10° S 03:41:34 15° SE 03:46:20 10° ESE visible
21 Oct 7.6 18:33:25 10° NNW 18:43:15 56° NE 18:47:30 35° ESE visible
21 Oct 8.8 20:39:13 10° WNW 21:00:13 - SSE 20:45:47 32° WSW visible
22 Oct 9.8 03:12:13 10° S 03:16:12 13° SSE 03:20:10 10° ESE visible
22 Oct 7.7 18:08:23 10° NNW 18:18:04 51° NE 18:27:19 11° ESE visible
22 Oct 8.5 20:13:40 10° WNW 20:22:51 39° SW 20:25:45 33° SSW visible
23 Oct 9.9 02:47:54 10° SSE 02:50:49 12° SSE 02:53:43 10° SE visible
23 Oct 7.9 17:43:23 10° NNW 17:52:53 45° NE 18:02:13 10° ESE visible
23 Oct 8.4 19:48:10 10° WNW 19:57:36 44° SW 20:06:51 10° SSE visible
24 Oct 10.0 02:24:24 10° SSE 02:25:25 10° SSE 02:26:25 10° SE visible
24 Oct 8.0 17:18:27 10° NNW 17:27:43 40° NE 17:36:49 10° ESE visible
24 Oct 8.3 19:22:43 10° WNW 19:32:22 49° SW 19:41:49 10° SSE visible
24 Oct 9.9 21:37:30 10° SW 21:38:58 10° SSW 21:40:27 10° SSW visible
25 Oct 8.6 03:57:50 10° SSW 04:06:34 45° SE 04:15:12 10° ENE visible
25 Oct 8.2 18:57:19 10° WNW 19:07:08 54° SW 19:16:47 10° SSE visible
25 Oct 9.8 21:10:12 10° SW 21:13:32 12° SSW 21:16:49 10° SSW visible
26 Oct 8.7 03:32:49 10° SSW 03:41:22 40° SE 03:49:48 10° ENE visible
26 Oct 8.1 18:31:57 10° NW 18:41:54 60° SW 18:51:42 10° SSE visible
26 Oct 9.8 20:43:39 10° WSW 20:48:05 14° SSW 20:52:31 10° S visible
